Radiation Dose at Monitoring Post of Fukushima Daini Nuclear Power Station
Date,Time,MP-1(microSv/h),MP-2(microSv/h),MP-3(microSv/h),MP-4(microSv/h),MP-5(microSv/h),MP-6(microSv/h),MP-7(microSv/h),Wind Direction,Wind Velocity(m/s),Rain
2016/01/10,00:00,0.470,0.271,0.495,0.450,0.422,0.225,0.199,south-southwest,2.5,No
2016/01/10,00:10,0.470,0.272,0.495,0.451,0.424,0.225,0.198,south-southwest,3.0,No
2016/01/10,00:20,0.472,0.272,0.494,0.448,0.425,0.224,0.198,south-southwest,2.9,No
2016/01/10,00:30,0.470,0.273,0.495,0.449,0.422,0.224,0.198,south-southwest,3.2,No
2016/01/10,00:40,0.468,0.274,0.496,0.450,0.424,0.225,0.200,south-southwest,3.5,No
2016/01/10,00:50,0.471,0.273,0.495,0.449,0.426,0.225,0.199,south-southwest,4.1,No
2016/01/10,01:00,0.471,0.274,0.494,0.447,0.424,0.225,0.198,south-southwest,4.5,No
2016/01/10,01:10,0.470,0.273,0.496,0.450,0.421,0.224,0.198,south-southwest,5.3,No
2016/01/10,01:20,0.471,0.273,0.493,0.449,0.422,0.224,0.198,south-southwest,6.3,No
2016/01/10,01:30,0.470,0.274,0.493,0.450,0.425,0.224,0.197,south-southwest,6.7,No
2016/01/10,01:40,0.471,0.273,0.494,0.448,0.424,0.225,0.198,south-southwest,6.7,No
2016/01/10,01:50,0.472,0.274,0.494,0.449,0.424,0.226,0.198,south-southwest,8.1,No
2016/01/10,02:00,0.471,0.272,0.493,0.449,0.423,0.225,0.199,south-southwest,7.3,No
2016/01/10,02:10,0.471,0.273,0.492,0.449,0.423,0.226,0.198,south-southwest,7.0,No
2016/01/10,02:20,0.469,0.271,0.494,0.449,0.423,0.226,0.198,south-southwest,6.0,No
2016/01/10,02:30,0.470,0.272,0.494,0.451,0.422,0.224,0.198,south-southwest,7.3,No
2016/01/10,02:40,0.471,0.273,0.494,0.448,0.423,0.225,0.198,south-southwest,7.3,No
2016/01/10,02:50,0.470,0.272,0.495,0.448,0.424,0.225,0.198,south-southwest,7.4,No
2016/01/10,03:00,0.467,0.274,0.496,0.449,0.422,0.225,0.198,south-southwest,8.4,No
2016/01/10,03:10,0.468,0.273,0.496,0.450,0.422,0.225,0.199,south-southwest,7.5,No
2016/01/10,03:20,0.470,0.272,0.493,0.450,0.424,0.226,0.198,south-southwest,7.4,No
2016/01/10,03:30,0.469,0.274,0.494,0.448,0.425,0.224,0.199,south-southwest,6.6,No
2016/01/10,03:40,0.470,0.273,0.494,0.450,0.424,0.226,0.197,southwest,7.6,No
2016/01/10,03:50,0.469,0.273,0.494,0.451,0.424,0.225,0.198,south-southwest,7.9,No
2016/01/10,04:00,0.471,0.273,0.493,0.450,0.422,0.224,0.199,south-southwest,8.2,No
2016/01/10,04:10,0.470,0.272,0.495,0.451,0.423,0.225,0.198,south-southwest,8.7,No
2016/01/10,04:20,0.468,0.272,0.493,0.450,0.423,0.225,0.198,south-southwest,9.0,No
2016/01/10,04:30,0.468,0.273,0.493,0.449,0.423,0.225,0.199,south-southwest,7.5,No
2016/01/10,04:40,0.468,0.273,0.492,0.448,0.421,0.225,0.198,south-southwest,8.5,No
2016/01/10,04:50,0.470,0.273,0.495,0.448,0.424,0.225,0.198,south,7.3,No
2016/01/10,05:00,0.470,0.272,0.494,0.451,0.423,0.225,0.198,south-southwest,7.0,No
2016/01/10,05:10,0.468,0.273,0.492,0.450,0.423,0.225,0.197,south-southwest,6.3,No
2016/01/10,05:20,0.470,0.273,0.495,0.450,0.424,0.224,0.197,south-southwest,5.0,No
2016/01/10,05:30,0.470,0.273,0.495,0.447,0.424,0.224,0.198,south-southwest,4.2,No
2016/01/10,05:40,0.470,0.273,0.493,0.450,0.422,0.224,0.198,south,2.7,No
2016/01/10,05:50,0.467,0.273,0.494,0.449,0.421,0.224,0.199,south,1.8,No
2016/01/10,06:00,0.470,0.273,0.494,0.452,0.422,0.224,0.198,south-southwest,4.1,No
2016/01/10,06:10,0.469,0.272,0.496,0.449,0.425,0.224,0.199,south,3.5,No
2016/01/10,06:20,0.469,0.272,0.493,0.449,0.423,0.224,0.198,south,3.2,No
2016/01/10,06:30,0.469,0.271,0.493,0.450,0.422,0.224,0.199,south,4.1,No
2016/01/10,06:40,0.470,0.273,0.493,0.451,0.421,0.224,0.197,south,3.6,No
2016/01/10,06:50,0.469,0.273,0.494,0.448,0.424,0.224,0.198,south-southeast,2.6,No
2016/01/10,07:00,0.470,0.274,0.495,0.448,0.423,0.225,0.198,south-southeast,3.9,No
2016/01/10,07:10,0.469,0.273,0.494,0.448,0.423,0.225,0.199,south,4.2,No
2016/01/10,07:20,0.469,0.272,0.494,0.448,0.422,0.225,0.198,south,3.5,No
2016/01/10,07:30,0.469,0.272,0.494,0.448,0.424,0.225,0.198,south-southwest,3.0,No
2016/01/10,07:40,0.469,0.274,0.496,0.448,0.422,0.226,0.198,south-southwest,2.4,No
2016/01/10,07:50,0.468,0.273,0.494,0.449,0.423,0.224,0.198,south-southwest,3.2,No
2016/01/10,08:00,0.471,0.272,0.497,0.446,0.421,0.224,0.198,south-southwest,3.6,No
2016/01/10,08:10,0.469,0.271,0.494,0.448,0.425,0.224,0.197,southwest,5.9,No
2016/01/10,08:20,0.469,0.274,0.493,0.449,0.424,0.224,0.198,southwest,4.7,No
2016/01/10,08:30,0.470,0.272,0.493,0.447,0.422,0.225,0.196,southwest,3.3,No
2016/01/10,08:40,0.470,0.272,0.494,0.446,0.423,0.223,0.195,west-southwest,6.6,No
2016/01/10,08:50,0.468,0.272,0.493,0.451,0.424,0.224,0.196,west,7.3,No
2016/01/10,09:00,0.469,0.272,0.493,0.448,0.422,0.224,0.198,west-southwest,5.9,No
2016/01/10,09:10,0.471,0.271,0.494,0.449,0.422,0.223,0.198,west-southwest,5.3,No
2016/01/10,09:20,0.468,0.272,0.493,0.450,0.424,0.224,0.197,west,3.1,No
2016/01/10,09:30,0.470,0.273,0.492,0.447,0.423,0.224,0.197,west,3.4,No
2016/01/10,09:40,0.471,0.271,0.494,0.449,0.422,0.223,0.196,west-northwest,2.7,No
2016/01/10,09:50,0.470,0.271,0.494,0.449,0.425,0.224,0.197,west-southwest,1.4,No
2016/01/10,10:00,0.470,0.271,0.492,0.447,0.423,0.224,0.196,-,CALM,No
2016/01/10,10:10,0.470,0.271,0.495,0.450,0.421,0.224,0.196,east,0.7,No
2016/01/10,10:20,0.468,0.270,0.491,0.447,0.424,0.225,0.198,northeast,0.7,No
2016/01/10,10:30,0.472,0.272,0.493,0.450,0.423,0.224,0.198,west,3.7,No
2016/01/10,10:40,0.471,0.271,0.493,0.449,0.422,0.224,0.198,northwest,1.5,No
2016/01/10,10:50,0.470,0.271,0.492,0.447,0.425,0.225,0.196,west-northwest,1.6,No
2016/01/10,11:00,0.471,0.273,0.495,0.449,0.423,0.224,0.198,west,4.4,No
2016/01/10,11:10,0.468,0.272,0.494,0.448,0.424,0.225,0.197,west-southwest,2.1,No
2016/01/10,11:20,0.470,0.273,0.492,0.450,0.423,0.224,0.198,west,4.3,No
2016/01/10,11:30,0.472,0.271,0.495,0.449,0.421,0.224,0.197,west-northwest,4.9,No
2016/01/10,11:40,0.468,0.271,0.492,0.447,0.425,0.224,0.197,west-southwest,7.7,No
2016/01/10,11:50,0.472,0.274,0.494,0.450,0.422,0.224,0.198,west,4.4,No
2016/01/10,12:00,0.469,0.272,0.493,0.448,0.426,0.225,0.197,west,7.1,No
2016/01/10,12:10,0.469,0.272,0.492,0.449,0.423,0.224,0.197,west,8.4,No
2016/01/10,12:20,0.471,0.273,0.496,0.449,0.425,0.224,0.197,west-southwest,6.6,No
2016/01/10,12:30,0.469,0.270,0.491,0.450,0.424,0.225,0.198,west-northwest,5.5,No
2016/01/10,12:40,0.471,0.272,0.493,0.446,0.425,0.224,0.197,west,6.5,No
2016/01/10,12:50,0.467,0.272,0.490,0.450,0.423,0.224,0.196,west,7.1,No
2016/01/10,13:00,0.469,0.271,0.493,0.444,0.425,0.225,0.197,west,7.9,No
2016/01/10,13:10,0.467,0.274,0.490,0.448,0.425,0.224,0.197,west,8.1,No
2016/01/10,13:20,0.470,0.271,0.496,0.446,0.426,0.225,0.197,west-northwest,6.4,No
2016/01/10,13:30,0.469,0.273,0.491,0.450,0.427,0.224,0.197,west-northwest,6.4,No
2016/01/10,13:40,0.470,0.273,0.497,0.445,0.425,0.224,0.198,west-northwest,7.6,No
2016/01/10,13:50,0.473,0.272,0.490,0.451,0.424,0.224,0.196,west,7.3,No
2016/01/10,14:00,0.469,0.272,0.495,0.448,0.426,0.225,0.198,west,5.6,No
2016/01/10,14:10,0.472,0.273,0.492,0.450,0.424,0.226,0.197,west,7.1,No
2016/01/10,14:20,0.471,0.271,0.497,0.447,0.425,0.224,0.198,west-northwest,4.5,No
2016/01/10,14:30,0.469,0.272,0.493,0.450,0.426,0.226,0.199,west-northwest,4.7,No
2016/01/10,14:40,0.473,0.273,0.494,0.447,0.423,0.223,0.198,northwest,5.4,No
2016/01/10,14:50,0.471,0.272,0.495,0.449,0.427,0.224,0.198,west-northwest,7.1,No
2016/01/10,15:00,0.470,0.273,0.494,0.450,0.424,0.225,0.198,west,7.3,No
2016/01/10,15:10,0.471,0.273,0.496,0.452,0.424,0.224,0.197,west,5.1,No
2016/01/10,15:20,0.471,0.273,0.495,0.450,0.426,0.223,0.198,west,5.4,No
2016/01/10,15:30,0.469,0.275,0.493,0.449,0.425,0.225,0.198,west,5.6,No
2016/01/10,15:40,0.474,0.274,0.497,0.453,0.425,0.223,0.197,west-northwest,8.1,No
2016/01/10,15:50,0.471,0.273,0.494,0.450,0.425,0.225,0.198,west-northwest,8.5,No
2016/01/10,16:00,0.472,0.273,0.495,0.451,0.422,0.225,0.198,west-northwest,9.8,No
2016/01/10,16:10,0.473,0.273,0.496,0.452,0.426,0.223,0.199,west-northwest,10.6,No
2016/01/10,16:20,0.471,0.272,0.494,0.451,0.425,0.225,0.199,west-northwest,12.8,No
2016/01/10,16:30,0.471,0.272,0.495,0.450,0.424,0.225,0.199,west-northwest,11.7,No
2016/01/10,16:40,0.473,0.273,0.495,0.450,0.426,0.224,0.197,west-northwest,10.9,No
2016/01/10,16:50,0.471,0.272,0.495,0.450,0.426,0.224,0.200,west-northwest,11.1,No
2016/01/10,17:00,0.470,0.272,0.496,0.450,0.425,0.225,0.199,west-northwest,11.1,No
2016/01/10,17:10,0.472,0.273,0.498,0.451,0.424,0.224,0.200,west-northwest,12.0,No
2016/01/10,17:20,0.470,0.274,0.495,0.452,0.423,0.226,0.199,west,12.8,No
2016/01/10,17:30,0.469,0.273,0.495,0.450,0.426,0.224,0.197,west-northwest,11.1,No
2016/01/10,17:40,0.471,0.273,0.496,0.450,0.424,0.224,0.198,west,11.2,No
2016/01/10,17:50,0.473,0.274,0.495,0.450,0.423,0.224,0.199,west,10.3,No
2016/01/10,18:00,0.472,0.273,0.495,0.450,0.424,0.225,0.199,west,11.4,No
2016/01/10,18:10,0.472,0.273,0.498,0.449,0.425,0.225,0.199,west,13.1,No
2016/01/10,18:20,0.474,0.273,0.496,0.451,0.425,0.225,0.198,west,13.6,No
2016/01/10,18:30,0.472,0.273,0.494,0.450,0.423,0.226,0.199,west,14.5,No
2016/01/10,18:40,0.473,0.274,0.495,0.448,0.424,0.225,0.198,west,13.9,No
2016/01/10,18:50,0.472,0.272,0.497,0.451,0.424,0.225,0.199,west,12.5,No
2016/01/10,19:00,0.471,0.272,0.496,0.450,0.423,0.226,0.199,west,11.8,No
2016/01/10,19:10,0.470,0.273,0.495,0.450,0.424,0.225,0.198,west,11.5,No
2016/01/10,19:20,0.473,0.273,0.497,0.448,0.425,0.224,0.199,west,11.4,No
2016/01/10,19:30,0.474,0.272,0.498,0.451,0.423,0.225,0.199,west-northwest,9.3,No
2016/01/10,19:40,0.471,0.272,0.494,0.449,0.423,0.225,0.197,west,10.9,No
2016/01/10,19:50,0.471,0.272,0.496,0.450,0.425,0.224,0.197,west-northwest,9.8,No
2016/01/10,20:00,0.472,0.274,0.496,0.450,0.424,0.224,0.199,west-northwest,7.8,No
2016/01/10,20:10,0.471,0.273,0.495,0.449,0.422,0.225,0.198,west,8.1,No
2016/01/10,20:20,0.472,0.273,0.494,0.451,0.421,0.225,0.198,west,8.9,No
2016/01/10,20:30,0.470,0.272,0.497,0.450,0.425,0.225,0.199,west,9.6,No
2016/01/10,20:40,0.471,0.273,0.495,0.451,0.424,0.225,0.198,west,8.4,No
2016/01/10,20:50,0.471,0.273,0.494,0.450,0.425,0.225,0.199,west-northwest,9.2,No
2016/01/10,21:00,0.471,0.274,0.496,0.449,0.423,0.224,0.198,west-northwest,6.8,No
2016/01/10,21:10,0.472,0.272,0.496,0.450,0.426,0.226,0.198,north-northwest,4.6,No
2016/01/10,21:20,0.470,0.273,0.495,0.450,0.424,0.225,0.199,north,5.8,No
2016/01/10,21:30,0.471,0.273,0.495,0.450,0.424,0.224,0.199,north,7.1,No
2016/01/10,21:40,0.472,0.273,0.495,0.448,0.423,0.225,0.198,north,5.3,No
2016/01/10,21:50,0.472,0.272,0.493,0.450,0.425,0.225,0.198,north,5.3,No
2016/01/10,22:00,0.472,0.274,0.494,0.451,0.425,0.225,0.199,north,5.5,No
2016/01/10,22:10,0.471,0.273,0.495,0.450,0.423,0.225,0.199,north,5.9,No
2016/01/10,22:20,0.471,0.274,0.497,0.449,0.424,0.224,0.199,north,6.5,No
2016/01/10,22:30,0.470,0.273,0.494,0.451,0.425,0.226,0.198,north,6.8,No
2016/01/10,22:40,0.471,0.273,0.495,0.451,0.425,0.225,0.200,north,6.3,No
2016/01/10,22:50,0.470,0.273,0.498,0.451,0.423,0.225,0.200,north,3.1,No
2016/01/10,23:00,0.472,0.273,0.496,0.450,0.423,0.225,0.198,north,1.8,No
2016/01/10,23:10,0.470,0.273,0.496,0.451,0.423,0.225,0.199,north,6.7,No
2016/01/10,23:20,0.471,0.272,0.496,0.453,0.424,0.226,0.200,north,8.2,No
2016/01/10,23:30,0.470,0.273,0.496,0.451,0.425,0.226,0.199,north,7.1,No
2016/01/10,23:40,0.471,0.273,0.495,0.449,0.423,0.225,0.199,north,7.1,No
2016/01/10,23:50,0.470,0.272,0.493,0.450,0.423,0.224,0.199,north,6.8,No
